Overview Statistics Trail Chart Weather Telemetry Raw packets
 

This is the latest recevied weather packets stored in our database for station/object KB1JDX. If no packets are shown the sender has not sent any weather packets the latest 10 day(s).

<< 1 2 3 4 5 >>
Time Temp. Humidity Pressure Rain* Wind** Luminosity Snow
1788615063 20° C 100% 1009.6 hPa 0 mm 1.79 m/s, 294° - -
1788613926 18.89° C 100% 1009.4 hPa 0 mm 0 m/s - -
1788612726 17.78° C 100% 1009.8 hPa 0 mm 0 m/s - -
1788611527 17.22° C 100% 1009.8 hPa 0 mm 0 m/s - -
1788611463 16.67° C 100% 1009.8 hPa 0 mm 0 m/s - -
1788610326 16.11° C 100% 1009.5 hPa 0 mm 0 m/s - -
1788609126 15.56° C 100% 1009.3 hPa 0 mm 0 m/s - -
1788607927 15° C 100% 1009.2 hPa 0 mm 0 m/s - -
1788607863 15° C 100% 1009.2 hPa 0 mm 0 m/s - -
1788606730 14.44° C 100% 1009 hPa 0 mm 0 m/s - -
1788605526 14.44° C 100% 1008.7 hPa 0 mm 0 m/s - -
1788604326 14.44° C 100% 1008.7 hPa 0 mm 0 m/s - -
1788604263 14.44° C 100% 1008.7 hPa 0 mm 0 m/s - -
1788603132 14.44° C 100% 1008.7 hPa 0 mm 0 m/s - -
1788601926 14.44° C 100% 1008.6 hPa 0 mm 0 m/s - -
1788600726 15° C 100% 1008.7 hPa 0 mm 0 m/s - -
1788600663 15° C 100% 1008.7 hPa 0 mm 0 m/s - -
1788599526 15° C 100% 1008.6 hPa 0 mm 0 m/s - -
1788598326 15° C 100% 1008.5 hPa 0 mm 0 m/s - -
1788597128 15° C 100% 1008.4 hPa 0 mm 0 m/s - -
1788597063 15° C 100% 1008.5 hPa 0 mm 0 m/s - -
1788593527 15.56° C 100% 1008.6 hPa 0 mm 0 m/s - -
1788593463 15.56° C 100% 1008.6 hPa 0 mm 0 m/s - -
1788592326 15.56° C 100% 1008.6 hPa 0 mm 0 m/s - -
1788591126 16.11° C 100% 1008.7 hPa 0 mm 0 m/s - -

* Rain latest hour (hover to see other rain measurements)
** Current wind speed in m/s (hover to see current wind gust speed)